Terminal Aerodrome Forecast
Issued by NWS

Current Version | Previous Version | Graphics & Text | Print | Product List | Glossary On
Versions: 1 2 3 4 5 6 7 8 9 10 11 12 13 14 15 16 17 18 19 20
984
FTUS41 KPBZ 041739
TAFHLG
TAF
KHLG 041739Z 0418/0518 VRB06KT P6SM VCSH BKN090
     FM042300 VRB04KT 3SM -SHRA OVC025
     FM050600 VRB03KT 3SM -SHRA BR OVC015=

USA.gov is the U.S. government's official web portal to all federal, state and local government web resources and services.